Probability
0 0 0 0 0 0 0 0 0 0 0 0 0 0 0 0 0 0 0 0 0 0 0 0 0 0 0 0 0 0 0 0 0 0 0 0 0 0 0 0 0 0 0
0 0 0 0 0 0 0 0 0 0 0 0 0 0 0 0 0 0 0 0 0 0 0 0 0 0 0 0 0 0 0 0 0 0 0 0 0 0 0 0 0 0 0
0 0 0 0 0 0 0 0 0 0 0 0 0 0 0 0 0 0 0 0 0 0 0 0 0 0 0 0 0 0 0 1 1 0 0 0 0 0 0 0 0 0 0
0 0 0 0 0 0 0 0 0 0 0 0 0 0 0 0 0 0 0 0 0 0 0 0 0 0 0 0 0 0 0 1 1 1 1 0 0 0 0 0 0 0 0
0 0 0 0 0 0 0 0 0 0 0 0 0 0 0 0 0 0 0 0 0 0 0 0 0 0 0 0 0 0 0 1 1 2 3 3 2 1 1 1 0 0 0
0 0 0 0 0 0 0 0 0 0 0 0 0 0 0 0 0 0 0 0 0 0 0 0 0 0 0 0 0 0 0 0 0 1 4 5 3 3 4 3 1 0 0
0 0 0 0 0 0 0 0 0 0 0 0 0 0 0 0 0 0 0 0 0 0 0 0 0 0 0 0 0 0 0 0 0 0 2 2 2 3 3 3 2 1 0
0 0 0 0 0 0 0 0 0 0 0 0 0 0 0 0 0 0 0 0 0 0 0 0 0 0 0 0 0 0 0 0 0 0 0 0 0 1 1 1 1 1 0
0 0 0 0 0 0 0 0 0 0 0 0 0 0 0 0 0 0 0 0 0 0 0 0 0 0 0 0 0 0 0 0 0 0 0 0 0 0 0 0 0 0 0
0 0 0 0 0 0 0 0 0 0 0 0 0 0 0 0 0 0 0 0 0 0 0 0 0 0 0 0 0 0 0 0 0 0 0 0 0 0 0 0 0 0 0
0 0 0 0 0 0 0 0 0 0 0 0 0 0 0 0 0 0 0 0 0 0 0 0 0 0 0 0 0 0 0 0 0 0 0 0 0 0 0 0 0 0 0
0 0 0 0 0 0 0 0 0 0 0 0 0 0 0 0 0 0 0 0 0 0 0 0 0 0 0 0 0 0 0 0 0 0 0 0 0 0 0 0 0 0 0
0 0 0 0 0 0 0 0 0 0 0 0 0 0 0 0 0 0 0 0 0 0 0 0 0 0 0 0 0 0 0 0 0 0 0 0 0 0 0 0 0 0 0
0 0 0 0 0 0 0 0 0 0 0 0 0 0 0 0 0 0 0 1 1 0 0 0 0 0 0 0 0 0 0 0 0 0 0 0 0 0 0 0 0 0 0
0 0 0 0 0 0 0 0 0 0 0 0 0 0 0 0 0 0 0 2 3 1 0 0 0 1 1 0 0 0 0 0 0 0 0 0 0 0 0 0 0 1 1
0 0 0 0 0 0 0 0 0 0 0 0 0 0 0 0 0 0 0 2 3 1 0 0 0 1 1 0 0 0 0 0 0 0 0 0 0 0 0 0 0 0 0
0 0 0 0 0 0 0 0 0 0 0 0 0 0 0 0 0 0 0 0 1 0 0 0 0 1 1 0 0 0 0 0 0 0 0 0 0 0 0 0 0 0 0
0 0 0 0 0 0 0 0 0 0 0 0 0 0 0 0 0 0 0 0 0 0 0 0 0 0 0 0 0 0 0 0 0 0 0 0 0 0 0 0 0 0 0
0 0 0 0 0 0 0 0 0 0 0 0 0 0 0 0 0 0 0 0 0 0 0 0 0 0 0 0 0 0 0 0 0 0 0 0 0 0 0 0 0 0 0
0 0 0 0 0 0 0 0 0 0 0 0 0 0 0 0 0 0 0 0 0 0 0 0 0 0 0 0 0 0 0 0 0 0 0 0 0 0 0 0 0 0 0
0 0 0 0 0 0 0 0 0 0 0 0 0 0 0 0 0 0 0 0 0 0 0 0 0 0 0 0 0 0 0 0 0 0 0 0 0 0 0 0 0 0 0
0 0 0 0 0 0 0 0 0 0 0 0 0 0 0 0 0 0 0 0 0 0 0 0 0 0 0 0 0 0 0 0 0 0 0 0 0 0 0 0 0 0 0
0 0 0 0 0 0 0 0 0 0 0 0 0 0 0 0 0 0 0 0 0 0 0 0 0 0 0 0 0 0 0 0 0 0 0 0 0 0 0 0 0 0 0
0 0 0 0 0 0 0 0 0 0 0 0 0 0 0 0 0 0 0 0 0 0 0 0 0 0 0 0 0 0 0 0 0 0 0 0 0 0 0 0 0 0 0
0 0 0 0 0 0 0 0 0 0 0 0 0 0 0 0 0 0 0 0 0 0 0 0 0 0 0 0 0 0 0 0 0 0 0 0 0 0 0 0 0 0 0
0 0 0 0 0 0 0 0 0 0 0 0 0 0 0 0 0 0 0 0 0 0 0 0 0 0 0 0 0 0 0 0 0 0 0 0 0 0 0 0 0 0 0
Wind_Speed
5 5 5 5 5 4 4 4 5 6 6 7 8 8 8 8 7 6 5 14 19 24 24 24 24 25 25 25 24 24 24 23 23 23 22 22 22 21 20 20 19 19 18
8 7 6 7 7 5 5 5 6 6 7 7 8 8 8 8 8 8 6 9 17 22 25 26 26 26 26 26 26 26 24 24 24 24 24 24 23 23 23 22 21 21 21
9 8 7 7 5 3 4 5 5 5 5 6 8 8 8 9 8 9 8 6 8 16 22 27 26 25 25 27 28 27 25 25 25 25 25 24 24 24 24 24 23 23 23
7 6 5 5 5 5 5 6 6 6 7 7 8 7 7 8 9 10 9 7 6 7 13 22 25 26 26 27 30 29 26 25 26 27 27 26 26 26 25 25 24 24 25
7 7 7 7 6 5 6 6 7 6 8 8 8 8 7 8 9 9 10 10 10 10 9 14 21 24 27 27 29 31 28 27 26 27 27 28 28 28 27 27 26 25 26
8 8 8 9 7 6 7 6 9 8 8 8 7 9 8 8 10 10 11 10 11 11 11 11 11 13 22 26 28 30 30 29 28 28 28 28 29 29 29 29 28 27 28
8 8 8 9 8 9 11 10 9 10 9 4 4 10 11 10 12 12 10 11 13 11 11 11 9 8 10 19 25 28 30 31 30 30 30 29 29 30 30 30 29 28 29
8 8 9 10 9 9 11 11 9 9 9 7 7 7 8 11 12 10 11 12 13 11 11 11 11 12 9 7 13 23 28 30 32 32 31 30 30 31 31 32 30 29 29
8 9 11 10 10 9 10 11 10 12 13 11 11 9 6 7 4 6 7 9 10 10 10 11 12 13 11 9 10 14 22 26 30 33 33 31 30 30 32 32 31 31 29
6 7 9 10 10 9 10 12 12 11 13 12 10 12 16 12 9 12 10 8 8 10 10 10 11 13 11 10 11 14 18 22 28 30 32 32 32 31 33 32 31 32 29
6 6 6 7 8 8 10 12 12 11 11 12 12 11 11 12 16 15 14 14 11 10 10 11 12 11 11 11 10 13 20 23 27 28 29 31 32 32 33 32 31 31 29
6 9 10 8 7 7 8 10 11 12 12 12 12 12 11 10 10 13 14 14 16 14 12 11 13 12 11 12 14 18 20 23 26 28 29 29 30 30 31 31 31 31 30
5 9 9 9 8 8 9 9 9 10 12 13 13 12 12 13 13 13 16 16 18 14 14 13 12 12 13 12 12 17 19 23 25 27 29 30 29 28 28 28 30 30 29
5 7 9 9 10 10 10 9 7 8 10 11 13 12 11 12 12 13 14 16 19 17 15 16 13 12 12 12 15 19 14 21 25 27 29 30 28 26 25 26 26 26 26
8 10 10 10 10 10 10 10 9 10 9 10 10 11 10 11 10 10 11 13 17 20 19 18 14 16 12 12 16 13 11 18 23 26 28 28 28 25 23 25 25 26 24
10 11 11 12 12 12 12 11 10 12 12 11 10 12 12 10 10 10 10 10 12 16 21 19 14 12 10 7 12 12 13 18 22 27 27 27 27 26 25 23 22 21 19
10 11 11 12 12 12 12 12 12 13 13 13 12 13 13 13 11 10 10 11 11 13 18 19 13 12 12 8 8 8 9 10 13 24 28 29 28 27 24 22 23 22 20
12 12 12 12 13 13 13 12 13 12 12 14 14 14 13 12 13 13 11 12 13 14 15 19 17 12 12 10 10 10 9 8 8 15 23 26 26 25 23 22 23 21 19
13 14 14 14 14 14 13 14 12 12 13 13 13 12 12 13 14 13 13 13 13 13 14 16 18 14 11 9 6 8 8 7 7 10 15 19 22 23 24 25 22 19 18
13 14 15 15 15 15 15 14 14 15 14 14 11 10 10 11 14 15 14 14 15 15 14 15 16 14 13 7 3 7 8 5 6 3 6 10 14 19 21 21 21 16 15
13 14 15 15 15 14 14 18 19 18 18 14 9 9 9 12 17 16 16 16 16 14 13 13 14 13 11 8 6 6 9 6 6 6 5 7 7 10 16 18 16 19 17
14 14 15 15 15 14 21 27 25 20 16 12 12 14 14 15 15 22 24 23 22 21 17 13 14 14 16 13 10 8 9 8 6 5 6 6 6 6 7 9 16 19 20
14 14 14 14 15 16 23 28 27 15 14 13 14 15 15 13 15 18 22 24 24 26 23 18 17 18 18 17 16 13 9 11 10 4 8 5 6 6 5 8 19 17 16
12 13 14 14 14 16 25 26 23 15 14 13 13 14 16 12 15 21 20 20 21 20 19 16 16 18 18 17 16 17 15 9 5 1 5 4 5 4 5 7 16 15 16
13 12 13 14 15 16 22 24 23 14 13 15 14 15 16 16 21 28 22 21 23 21 19 23 23 24 27 27 21 15 11 8 6 3 2 5 4 3 3 3 5 13 17
13 13 14 14 16 16 19 26 25 13 13 13 13 14 20 23 29 32 24 20 20 20 19 18 17 19 18 15 15 11 10 10 5 4 6 7 4 4 4 3 3 2 7
Wind_Direction
221 220 221 218 219 214 218 224 229 237 240 241 238 235 240 239 236 240 240 240 236 234 237 236 234 232 230 230 232 232 232 231 231 233 235 235 236 237 238 239 241 245 247
221 220 221 224 228 224 225 229 231 232 235 239 245 240 240 241 238 239 238 240 237 234 235 237 239 239 238 237 236 236 233 233 234 234 236 237 238 239 241 241 242 244 246
223 227 231 235 239 230 236 241 248 246 247 243 246 243 238 239 241 242 240 237 237 236 236 239 243 244 244 244 242 240 236 233 234 235 237 238 239 238 239 241 243 245 247
223 230 239 242 229 218 222 226 231 233 236 236 243 242 242 244 245 244 242 237 231 231 237 240 242 244 245 245 247 247 244 240 236 235 236 239 240 240 241 241 243 245 248
212 215 229 234 223 225 233 237 244 236 251 249 250 252 246 246 247 247 244 238 233 230 233 240 241 243 245 246 248 250 251 248 244 242 240 239 240 240 240 241 242 243 246
217 219 236 242 228 230 241 233 243 239 246 254 256 257 253 246 249 248 247 244 240 236 237 241 241 244 246 246 246 248 250 250 250 249 247 244 243 242 241 240 241 242 245
226 225 237 243 231 234 242 236 234 244 248 225 242 263 259 249 250 250 249 248 248 245 243 242 242 245 246 243 243 245 247 248 249 250 250 250 248 246 243 241 240 241 243
238 235 240 245 240 239 247 244 236 244 250 218 226 260 271 266 248 242 240 244 248 247 245 241 241 243 240 236 238 239 242 246 249 253 254 252 250 248 245 242 239 240 240
255 251 251 250 247 237 242 242 232 235 249 244 222 229 250 254 285 263 244 243 244 242 245 246 239 240 237 234 237 237 239 243 249 255 257 254 253 248 244 243 240 238 238
280 269 265 262 256 247 246 246 242 235 242 250 240 229 239 251 258 274 260 248 241 243 240 239 240 241 233 230 233 235 237 239 246 252 253 253 251 247 246 243 239 237 236
349 339 317 296 279 267 261 259 255 246 243 245 248 248 243 248 250 257 268 268 257 245 237 235 238 239 233 229 229 234 236 238 245 250 251 249 247 245 244 241 238 238 235
354 -0 355 348 330 309 293 283 274 267 262 257 256 255 255 249 247 251 255 259 263 263 252 233 232 231 227 223 225 228 229 235 241 246 248 247 246 244 242 243 240 238 233
350 349 349 349 346 338 329 317 302 290 283 281 278 273 268 265 267 268 266 269 269 268 263 251 241 234 232 224 226 226 228 233 238 240 243 245 245 243 241 243 242 238 230
334 335 338 339 336 334 332 329 318 306 299 294 290 287 286 282 276 271 274 281 281 277 269 264 258 246 238 233 229 227 226 234 239 240 240 242 243 240 238 238 237 234 227
342 340 336 331 327 324 323 321 317 311 307 300 295 291 290 292 289 282 276 273 279 286 282 275 266 254 241 230 228 222 220 234 234 237 236 236 237 233 231 233 232 225 215
340 336 334 330 325 322 320 318 314 312 308 305 304 303 298 296 296 291 283 279 275 280 285 283 278 267 257 233 228 219 219 229 230 231 233 231 228 227 225 225 222 210 198
337 334 330 326 322 320 319 316 313 311 312 313 312 308 304 304 304 302 298 295 290 287 288 290 288 280 265 243 241 236 233 234 237 233 231 227 222 221 219 210 191 187 191
340 337 334 330 328 324 321 316 310 314 320 316 311 308 309 313 312 309 305 300 298 295 291 290 290 283 271 252 239 246 246 242 243 246 239 231 220 215 211 192 184 180 186
338 337 335 331 327 324 323 316 310 318 315 308 304 304 308 311 309 309 309 307 304 298 291 287 286 286 280 271 251 258 264 265 253 247 245 237 223 214 207 189 183 179 181
336 335 333 329 325 324 324 319 324 319 312 305 298 295 300 308 310 310 308 306 304 300 298 293 286 282 279 275 230 266 268 254 255 260 262 251 228 214 205 185 172 175 179
333 331 329 327 324 324 322 323 325 320 313 302 292 292 296 301 298 307 316 313 312 311 306 304 301 295 283 271 266 258 258 260 227 216 218 225 208 196 179 176 171 166 174
330 329 328 324 324 324 320 321 322 319 316 317 319 320 316 312 313 324 315 312 313 310 306 305 300 297 296 291 278 268 274 268 250 196 203 223 185 181 165 161 170 169 173
323 323 320 321 319 317 317 319 321 330 325 321 323 323 316 315 326 320 315 315 314 307 303 299 293 291 297 300 296 281 275 273 265 188 176 188 162 162 142 150 157 168 187
322 318 317 318 315 314 313 319 332 332 321 318 318 316 310 315 319 317 317 314 310 305 296 283 278 283 284 286 288 291 286 280 315 282 150 154 165 161 148 157 168 180 200
315 312 315 315 312 311 314 324 330 327 322 321 319 313 310 312 313 318 316 309 304 300 295 285 275 276 277 277 277 276 271 248 246 243 146 113 123 95 89 101 154 191 206
311 313 310 309 309 310 313 320 324 321 314 311 309 310 312 313 316 316 312 303 300 308 315 316 304 291 285 283 288 280 266 254 227 208 188 136 127 126 113 64 72 218 220